sat.trackr.live / text

‹ back to catalog

STARLINK-34101

NORAD 63812 · 2025-092J

PAYLOAD ACTIVE UNKNOWN

§ Identity

Operator
Country
US
Launch date
2025-05-04
Launch site
AFETR
Launch vehicle
Mass (kg)
RCS (m²)

Purposes: comms

External: N2YO · Heavens-Above · Gunter

§ Orbital elements

Epoch: 2026-09-20T02:42:14.454720Z

Period
94.26 min
Inclination
43.0002°
Eccentricity
0.0001534
Mean motion
15.27620057 rev/d
Perigee alt
481.9 km
Apogee alt
484.0 km
Semi-major
6,861.1 km
B*
6.1882e-4
RAAN
154.1506°
Arg perigee
266.3716°
Mean anomaly
93.6960°
Rev number
7,829

§ Raw data

STARLINK-341011 63812U 25092J   26263.11266730  .00016826  00000+0  61882-3 0  99932 63812  43.0002 154.1506 0001534 266.3716  93.6960 15.27620057 78291

JSON: /api/v1/satellites/63812 · /tle

For live sub-satellite position, see the globe view (requires WebGL).

§ Visibility from observer

Set your observer location to see the next 7 days of passes ≥ 10°. The values pass through the URL so the page stays shareable.

No JS? Fill the form by hand. The geolocation button needs JavaScript.